Location: *
(32.8667°N, 13.1833°E)
Time: 04:27:43
(UTC+00:00)

ADEOS Rocket - Pass Details

Date: 18 July 2019
Orbit: 858 x 1307 km, 98.7° (Epoch: 21 August)

Event Time Altitude Azimuth Distance (km) Brightness Sun altitude
Rises 19:57:22 0° 7° (N) 3,497 6.4 -18.7°
Reaches altitude 10° 19:59:49 10° 3° (N) 2,526 5.7 -19.0°
Maximum altitude 20:05:12 55° 287° (WNW) 1,020 3.4 -19.9°
Drops below altitude 10° 20:10:32 10° 210° (SSW) 2,502 5.0 -20.7°
Sets 20:12:58 0° 206° (SSW) 3,460 5.7 -21.0°
